| time (UTC) | temp F | wind direction | speed MPH | gust MPH | rain 1hr in | rain 24hr in | rain mn in | humidity % | barometer mb |
| 20260503041106 | 67 | 5 | 0.0 | 1.0 | 0.00 | 0.00 | 0.00 | 43 | 1014.4 |
| 20260503040605 | 67 | 346 | 0.0 | 1.0 | 0.00 | 0.00 | 0.00 | 47 | 1014.5 |
| 20260503040104 | 66 | 345 | 0.0 | 3.0 | 0.00 | 0.00 | 0.00 | 49 | 1014.4 |
| 20260503035105 | 67 | 346 | 2.0 | 8.0 | 0.00 | 0.00 | 0.00 | 47 | 1014.3 |
| 20260503034104 | 67 | 325 | 0.0 | 9.0 | 0.00 | 0.00 | 0.00 | 50 | 1014.3 |
| 20260503033604 | 67 | 28 | 0.0 | 2.0 | 0.00 | 0.00 | 0.00 | 50 | 1014.2 |
| 20260503033104 | 67 | 28 | 0.0 | 0.0 | 0.00 | 0.00 | 0.00 | 47 | 1014.1 |
| 20260503032604 | 67 | 28 | 0.0 | 0.0 | 0.00 | 0.00 | 0.00 | 50 | 1014.0 |
| 20260503031605 | 67 | 28 | 0.0 | 2.0 | 0.00 | 0.00 | 0.00 | 47 | 1014.0 |
| 20260503031104 | 67 | 34 | 1.0 | 6.0 | 0.00 | 0.00 | 0.00 | 45 | 1013.9 |
| 20260503030604 | 67 | 315 | 1.0 | 10.0 | 0.00 | 0.00 | 0.00 | 51 | 1013.9 |
| 20260503030104 | 67 | 5 | 0.0 | 0.0 | 0.00 | 0.00 | 0.00 | 53 | 1013.9 |
| 20260503025605 | 67 | 5 | 0.0 | 0.0 | 0.00 | 0.00 | 0.00 | 50 | 1013.8 |
| 20260503025105 | 67 | 5 | 0.0 | 0.0 | 0.00 | 0.00 | 0.00 | 51 | 1013.8 |
| 20260503024105 | 67 | 348 | 0.0 | 0.0 | 0.00 | 0.00 | 0.00 | 49 | 1013.7 |
| 20260503023604 | 68 | 348 | 0.0 | 0.0 | 0.00 | 0.00 | 0.00 | 50 | 1013.7 |
| 20260503023104 | 68 | 348 | 0.0 | 0.0 | 0.00 | 0.00 | 0.00 | 49 | 1013.7 |
| 20260503022604 | 68 | 348 | 0.0 | 0.0 | 0.00 | 0.00 | 0.00 | 49 | 1013.8 |
| 20260503021605 | 68 | 348 | 0.0 | 0.0 | 0.00 | 0.00 | 0.00 | 49 | 1013.8 |
| 20260503020604 | 68 | 348 | 0.0 | 0.0 | 0.00 | 0.00 | 0.00 | 50 | 1013.8 |
| 20260503020105 | 69 | 348 | 0.0 | 0.0 | 0.00 | 0.00 | 0.00 | 48 | 1013.8 |
| 20260503015104 | 70 | 348 | 1.0 | 6.0 | 0.00 | 0.00 | 0.00 | 43 | 1013.9 |
| 20260503014604 | 70 | 311 | 1.0 | 5.0 | 0.00 | 0.00 | 0.00 | 49 | 1014.1 |
| 20260503014104 | 70 | 92 | 0.0 | 0.0 | 0.00 | 0.00 | 0.00 | 49 | 1014.1 |
| 20260503013604 | 70 | 92 | 0.0 | 0.0 | 0.00 | 0.00 | 0.00 | 49 | 1014.2 |
| 20260503012604 | 70 | 279 | 0.0 | 1.0 | 0.00 | 0.00 | 0.00 | 47 | 1014.1 |
| 20260503012104 | 71 | 238 | 0.0 | 0.0 | 0.00 | 0.00 | 0.00 | 45 | 1014.2 |
| 20260503011604 | 72 | 258 | 0.0 | 0.0 | 0.00 | 0.00 | 0.00 | 45 | 1014.2 |
| 20260503011104 | 73 | 259 | 0.0 | 2.0 | 0.00 | 0.00 | 0.00 | 43 | 1014.1 |
| 20260503010604 | 73 | 275 | 0.0 | 10.0 | 0.00 | 0.00 | 0.00 | 40 | 1014.1 |
| 20260503010104 | 72 | 321 | 1.0 | 6.0 | 0.00 | 0.00 | 0.00 | 43 | 1014.1 |
| 20260503005604 | 73 | 190 | 0.0 | 0.0 | 0.00 | 0.00 | 0.00 | 44 | 1014.1 |
| 20260503005104 | 73 | 190 | 0.0 | 2.0 | 0.00 | 0.00 | 0.00 | 45 | 1014.2 |
| 20260503004604 | 74 | 260 | 0.0 | 0.0 | 0.00 | 0.00 | 0.00 | 43 | 1014.2 |
| 20260503004105 | 74 | 260 | 2.0 | 13.0 | 0.00 | 0.00 | 0.00 | 37 | 1014.3 |
| 20260503003605 | 74 | 305 | 0.0 | 10.0 | 0.00 | 0.00 | 0.00 | 40 | 1014.3 |
| 20260503003104 | 74 | 297 | 1.0 | 6.0 | 0.00 | 0.00 | 0.00 | 42 | 1014.3 |
| 20260503002604 | 74 | 301 | 0.0 | 0.0 | 0.00 | 0.00 | 0.00 | 40 | 1014.3 |
| 20260503001604 | 75 | 304 | 1.0 | 6.0 | 0.00 | 0.00 | 0.00 | 35 | 1014.5 |
| 20260503001104 | 75 | 277 | 1.0 | 6.0 | 0.00 | 0.00 | 0.00 | 38 | 1014.5 |
| 20260503000104 | 74 | 305 | 3.0 | 16.0 | 0.00 | 0.00 | 0.00 | 37 | 1014.6 |
| 20260502235104 | 75 | 321 | 0.0 | 0.0 | 0.00 | 0.00 | 0.00 | 38 | 1014.7 |
| 20260502234604 | 75 | 335 | 2.0 | 9.0 | 0.00 | 0.00 | 0.00 | 38 | 1014.8 |
| 20260502234104 | 75 | 351 | 2.0 | 14.0 | 0.00 | 0.00 | 0.00 | 36 | 1014.8 |
| 20260502233605 | 75 | 328 | 0.0 | 2.0 | 0.00 | 0.00 | 0.00 | 41 | 1014.9 |
| 20260502233104 | 75 | 239 | 0.0 | 10.0 | 0.00 | 0.00 | 0.00 | 38 | 1014.9 |
| 20260502232604 | 75 | 355 | 0.0 | 0.0 | 0.00 | 0.00 | 0.00 | 37 | 1014.9 |
| 20260502232105 | 76 | 328 | 1.0 | 8.0 | 0.00 | 0.00 | 0.00 | 37 | 1015.0 |
| 20260502231604 | 76 | 322 | 0.0 | 0.0 | 0.00 | 0.00 | 0.00 | 38 | 1015.1 |
| 20260502230604 | 76 | 291 | 1.0 | 9.0 | 0.00 | 0.00 | 0.00 | 37 | 1015.3 |
| 20260502230104 | 76 | 329 | 5.0 | 14.0 | 0.00 | 0.00 | 0.00 | 36 | 1015.5 |
| 20260502225604 | 76 | 269 | 1.0 | 3.0 | 0.00 | 0.00 | 0.00 | 38 | 1015.6 |
| 20260502225104 | 76 | 55 | 2.0 | 6.0 | 0.00 | 0.00 | 0.00 | 39 | 1015.6 |
| 20260502224605 | 75 | 304 | 0.0 | 9.0 | 0.00 | 0.00 | 0.00 | 38 | 1015.6 |
| 20260502223604 | 75 | 271 | 0.0 | 6.0 | 0.00 | 0.00 | 0.00 | 36 | 1015.7 |
| 20260502223104 | 75 | 302 | 2.0 | 15.0 | 0.00 | 0.00 | 0.00 | 37 | 1015.8 |
| 20260502222604 | 75 | 2 | 1.0 | 9.0 | 0.00 | 0.00 | 0.00 | 42 | 1015.9 |
| 20260502222104 | 75 | 270 | 1.0 | 5.0 | 0.00 | 0.00 | 0.00 | 39 | 1015.8 |
| 20260502221605 | 75 | 325 | 1.0 | 10.0 | 0.00 | 0.00 | 0.00 | 42 | 1016.0 |
| 20260502221104 | 75 | 329 | 0.0 | 10.0 | 0.00 | 0.00 | 0.00 | 42 | 1016.0 |
| 20260502220604 | 74 | 251 | 2.0 | 9.0 | 0.00 | 0.00 | 0.00 | 41 | 1016.0 |
| 20260502215604 | 74 | 53 | 0.0 | 0.0 | 0.00 | 0.00 | 0.00 | 46 | 1016.0 |
| 20260502215104 | 74 | 317 | 6.0 | 15.0 | 0.00 | 0.00 | 0.00 | 45 | 1016.0 |
| 20260502214604 | 74 | 333 | 2.0 | 12.0 | 0.00 | 0.00 | 0.00 | 45 | 1016.0 |
| 20260502214104 | 74 | 332 | 0.0 | 2.0 | 0.00 | 0.00 | 0.00 | 47 | 1016.1 |
| 20260502213604 | 74 | 47 | 0.0 | 1.0 | 0.00 | 0.00 | 0.00 | 46 | 1016.1 |
| 20260502213104 | 74 | 319 | 1.0 | 6.0 | 0.00 | 0.00 | 0.00 | 46 | 1016.1 |
| 20260502212604 | 74 | 300 | 1.0 | 8.0 | 0.00 | 0.00 | 0.00 | 45 | 1016.2 |
| 20260502212104 | 74 | 333 | 1.0 | 5.0 | 0.00 | 0.00 | 0.00 | 43 | 1016.2 |
| 20260502211604 | 74 | 313 | 0.0 | 6.0 | 0.00 | 0.00 | 0.00 | 43 | 1016.2 |
| 20260502211104 | 74 | 334 | 2.0 | 8.0 | 0.00 | 0.00 | 0.00 | 45 | 1016.3 |
| 20260502210604 | 74 | 315 | 1.0 | 5.0 | 0.00 | 0.00 | 0.00 | 43 | 1016.3 |
| 20260502210104 | 74 | 331 | 2.0 | 8.0 | 0.00 | 0.00 | 0.00 | 40 | 1016.4 |
| 20260502205604 | 74 | 312 | 3.0 | 14.0 | 0.00 | 0.00 | 0.00 | 38 | 1016.5 |
| 20260502204604 | 74 | 312 | 1.0 | 6.0 | 0.00 | 0.00 | 0.00 | 40 | 1016.5 |
| 20260502204104 | 73 | 338 | 5.0 | 9.0 | 0.00 | 0.00 | 0.00 | 39 | 1016.5 |
| 20260502203104 | 73 | 49 | 0.0 | 8.0 | 0.00 | 0.00 | 0.00 | 40 | 1016.7 |
| 20260502202604 | 73 | 53 | 2.0 | 9.0 | 0.00 | 0.00 | 0.00 | 42 | 1016.7 |
| 20260502201604 | 73 | 335 | 5.0 | 12.0 | 0.00 | 0.00 | 0.00 | 44 | 1016.8 |
| 20260502200103 | 72 | 353 | 3.0 | 6.0 | 0.00 | 0.00 | 0.00 | 44 | 1016.9 |
| 20260502195604 | 72 | 328 | 2.0 | 15.0 | 0.00 | 0.00 | 0.00 | 46 | 1016.9 |
| 20260502195105 | 72 | 342 | 1.0 | 9.0 | 0.00 | 0.00 | 0.00 | 46 | 1017.0 |
| 20260502194604 | 72 | 313 | 4.0 | 16.0 | 0.00 | 0.00 | 0.00 | 47 | 1017.0 |
| 20260502194104 | 71 | 317 | 3.0 | 17.0 | 0.00 | 0.00 | 0.00 | 46 | 1017.0 |
| 20260502193604 | 71 | 305 | 2.0 | 8.0 | 0.00 | 0.00 | 0.00 | 48 | 1017.0 |
| 20260502193104 | 71 | 2 | 1.0 | 9.0 | 0.00 | 0.00 | 0.00 | 46 | 1017.1 |
| 20260502192605 | 71 | 316 | 5.0 | 15.0 | 0.00 | 0.00 | 0.00 | 48 | 1017.1 |
| 20260502191604 | 71 | 331 | 2.0 | 8.0 | 0.00 | 0.00 | 0.00 | 47 | 1017.2 |
| 20260502191104 | 71 | 335 | 5.0 | 12.0 | 0.00 | 0.00 | 0.00 | 47 | 1017.3 |
| 20260502190605 | 71 | 331 | 3.0 | 15.0 | 0.00 | 0.00 | 0.00 | 49 | 1017.2 |
| 20260502190104 | 71 | 43 | 6.0 | 17.0 | 0.00 | 0.00 | 0.00 | 47 | 1017.2 |
| 20260502185604 | 71 | 307 | 3.0 | 15.0 | 0.00 | 0.00 | 0.00 | 47 | 1017.3 |
| 20260502185104 | 71 | 304 | 5.0 | 14.0 | 0.00 | 0.00 | 0.00 | 46 | 1017.3 |
| 20260502184605 | 72 | 314 | 2.0 | 9.0 | 0.00 | 0.00 | 0.00 | 48 | 1017.3 |
| 20260502184104 | 71 | 329 | 0.0 | 5.0 | 0.00 | 0.00 | 0.00 | 51 | 1017.3 |
| 20260502183604 | 71 | 310 | 2.0 | 9.0 | 0.00 | 0.00 | 0.00 | 49 | 1017.4 |
| 20260502183104 | 71 | 348 | 1.0 | 9.0 | 0.00 | 0.00 | 0.00 | 51 | 1017.3 |
| 20260502182105 | 70 | 308 | 5.0 | 14.0 | 0.00 | 0.00 | 0.00 | 48 | 1017.3 |
| 20260502181603 | 70 | 317 | 3.0 | 12.0 | 0.00 | 0.00 | 0.00 | 49 | 1017.4 |
| 20260502181104 | 70 | 314 | 5.0 | 14.0 | 0.00 | 0.00 | 0.00 | 50 | 1017.4 |
| 20260502180604 | 70 | 310 | 1.0 | 9.0 | 0.00 | 0.00 | 0.00 | 52 | 1017.5 |
| 20260502180104 | 70 | 335 | 1.0 | 12.0 | 0.00 | 0.00 | 0.00 | 51 | 1017.4 |
| 20260502170104 | 67 | 34 | 0.0 | 2.0 | 0.00 | 0.00 | 0.00 | 56 | 1017.6 |
| 20260502164104 | 65 | 309 | 0.0 | 0.0 | 0.00 | 0.00 | 0.00 | 61 | 1017.4 |
| 20260502163603 | 64 | 300 | 1.0 | 8.0 | 0.00 | 0.00 | 0.00 | 61 | 1017.5 |
| 20260502163104 | 64 | 324 | 2.0 | 5.0 | 0.00 | 0.00 | 0.00 | 60 | 1017.5 |
| 20260502162604 | 64 | 15 | 0.0 | 6.0 | 0.00 | 0.00 | 0.00 | 62 | 1017.5 |
| 20260502162104 | 64 | 71 | 0.0 | 6.0 | 0.00 | 0.00 | 0.00 | 62 | 1017.6 |
| 20260502161604 | 63 | 349 | 0.0 | 0.0 | 0.00 | 0.00 | 0.00 | 62 | 1017.6 |
| 20260502161104 | 63 | 348 | 0.0 | 0.0 | 0.00 | 0.00 | 0.00 | 62 | 1017.6 |
| 20260502160604 | 63 | 35 | 0.0 | 6.0 | 0.00 | 0.00 | 0.00 | 64 | 1017.6 |
| 20260502160104 | 62 | 290 | 0.0 | 5.0 | 0.00 | 0.00 | 0.00 | 62 | 1017.5 |
| 20260502151604 | 61 | 12 | 0.0 | 9.0 | 0.00 | 0.00 | 0.00 | 62 | 1017.1 |
| 20260502151104 | 61 | 47 | 0.0 | 1.0 | 0.00 | 0.00 | 0.00 | 63 | 1017.0 |
| 20260502150604 | 61 | 331 | 0.0 | 0.0 | 0.00 | 0.00 | 0.00 | 62 | 1017.0 |
| 20260502150104 | 61 | 321 | 1.0 | 18.0 | 0.00 | 0.00 | 0.00 | 62 | 1017.1 |
| 20260502140105 | 59 | 11 | 5.0 | 14.0 | 0.00 | 0.00 | 0.00 | 66 | 1016.9 |
| 20260502130603 | 58 | 305 | 0.0 | 2.0 | 0.00 | 0.00 | 0.00 | 68 | 1016.4 |
| 20260502130104 | 58 | 319 | 1.0 | 9.0 | 0.00 | 0.00 | 0.00 | 69 | 1016.4 |
| 20260502123603 | 57 | 312 | 0.0 | 0.0 | 0.00 | 0.00 | 0.00 | 72 | 1016.5 |
| 20260502123104 | 57 | 322 | 0.0 | 5.0 | 0.00 | 0.00 | 0.00 | 71 | 1016.5 |
| 20260502122604 | 57 | 5 | 1.0 | 3.0 | 0.00 | 0.00 | 0.00 | 71 | 1016.4 |
| 20260502122104 | 57 | 351 | 0.0 | 5.0 | 0.00 | 0.00 | 0.00 | 71 | 1016.4 |
| 20260502121604 | 57 | 338 | 0.0 | 1.0 | 0.00 | 0.00 | 0.00 | 71 | 1016.3 |
| 20260502120603 | 57 | 63 | 0.0 | 6.0 | 0.00 | 0.00 | 0.00 | 70 | 1016.3 |
| 20260502115604 | 58 | 252 | 0.0 | 0.0 | 0.00 | 0.00 | 0.00 | 69 | 1016.3 |
| 20260502115104 | 58 | 235 | 0.0 | 0.0 | 0.00 | 0.00 | 0.00 | 69 | 1016.3 |
| 20260502114604 | 58 | 235 | 0.0 | 5.0 | 0.00 | 0.00 | 0.00 | 67 | 1016.3 |
| 20260502114104 | 59 | 355 | 0.0 | 1.0 | 0.00 | 0.00 | 0.00 | 67 | 1016.3 |
| 20260502113104 | 60 | 355 | 1.0 | 5.0 | 0.00 | 0.00 | 0.00 | 65 | 1016.3 |
| 20260502112604 | 60 | 317 | 5.0 | 14.0 | 0.00 | 0.00 | 0.00 | 65 | 1016.3 |
| 20260502112104 | 61 | 7 | 2.0 | 8.0 | 0.00 | 0.00 | 0.00 | 64 | 1016.3 |
| 20260502111604 | 61 | 348 | 3.0 | 12.0 | 0.00 | 0.00 | 0.00 | 63 | 1016.1 |
| 20260502111104 | 61 | 304 | 3.0 | 13.0 | 0.00 | 0.00 | 0.00 | 63 | 1016.2 |
| 20260502110604 | 61 | 330 | 1.0 | 12.0 | 0.00 | 0.00 | 0.00 | 63 | 1016.1 |
| 20260502110104 | 61 | 323 | 6.0 | 16.0 | 0.00 | 0.00 | 0.00 | 63 | 1016.1 |
| 20260502105604 | 60 | 289 | 5.0 | 14.0 | 0.00 | 0.00 | 0.00 | 63 | 1016.1 |
| 20260502105104 | 61 | 326 | 3.0 | 14.0 | 0.00 | 0.00 | 0.00 | 63 | 1016.1 |
| 20260502104103 | 60 | 326 | 1.0 | 12.0 | 0.00 | 0.00 | 0.00 | 63 | 1016.1 |
| 20260502103604 | 60 | 319 | 5.0 | 15.0 | 0.00 | 0.00 | 0.00 | 63 | 1016.1 |
| 20260502102604 | 60 | 313 | 3.0 | 12.0 | 0.00 | 0.00 | 0.00 | 63 | 1016.1 |
| 20260502101604 | 60 | 331 | 0.0 | 14.0 | 0.00 | 0.00 | 0.00 | 63 | 1016.1 |
| 20260502101105 | 60 | 327 | 0.0 | 9.0 | 0.00 | 0.00 | 0.00 | 63 | 1016.1 |
| 20260502100604 | 60 | 314 | 3.0 | 14.0 | 0.00 | 0.00 | 0.00 | 63 | 1016.1 |
| 20260502100104 | 60 | 326 | 2.0 | 8.0 | 0.00 | 0.00 | 0.00 | 62 | 1016.0 |
| 20260502091103 | 60 | 23 | 1.0 | 9.0 | 0.00 | 0.00 | 0.00 | 64 | 1016.0 |
| 20260502090604 | 60 | 20 | 5.0 | 14.0 | 0.00 | 0.00 | 0.00 | 63 | 1016.0 |
| 20260502080104 | 61 | 331 | 2.0 | 12.0 | 0.00 | 0.00 | 0.00 | 63 | 1016.1 |
| 20260502071103 | 62 | 313 | 2.0 | 14.0 | 0.00 | 0.00 | 0.00 | 64 | 1016.0 |
| 20260502070604 | 62 | 333 | 2.0 | 8.0 | 0.00 | 0.00 | 0.00 | 64 | 1016.0 |
| 20260502070104 | 61 | 318 | 1.0 | 13.0 | 0.00 | 0.00 | 0.00 | 64 | 1016.0 |
| 20260502065104 | 61 | 67 | 0.0 | 8.0 | 0.00 | 0.00 | 0.00 | 65 | 1016.1 |
| 20260502064604 | 61 | 333 | 2.0 | 6.0 | 0.00 | 0.00 | 0.00 | 65 | 1015.9 |
| 20260502064104 | 62 | 281 | 3.0 | 14.0 | 0.00 | 0.00 | 0.00 | 62 | 1015.9 |
| 20260502062604 | 62 | 321 | 1.0 | 10.0 | 0.00 | 0.00 | 0.00 | 64 | 1015.9 |
| 20260502061103 | 63 | 317 | 1.0 | 9.0 | 0.00 | 0.00 | 0.00 | 59 | 1015.8 |
| 20260502060604 | 63 | 348 | 6.0 | 14.0 | 0.00 | 0.00 | 0.00 | 59 | 1015.8 |
| 20260502055605 | 63 | 343 | 3.0 | 10.0 | 0.00 | 0.00 | 0.00 | 58 | 1015.7 |
| 20260502055104 | 62 | 337 | 1.0 | 8.0 | 0.00 | 0.00 | 0.00 | 61 | 1015.7 |
| 20260502054105 | 62 | 337 | 5.0 | 10.0 | 0.00 | 0.00 | 0.00 | 58 | 1015.7 |
| 20260502053603 | 62 | 3 | 2.0 | 12.0 | 0.00 | 0.00 | 0.00 | 57 | 1015.7 |
| 20260502053103 | 62 | 290 | 3.0 | 14.0 | 0.00 | 0.00 | 0.00 | 57 | 1015.5 |
| 20260502052604 | 60 | 296 | 0.0 | 1.0 | 0.00 | 0.00 | 0.00 | 64 | 1015.6 |
| 20260502052104 | 61 | 292 | 0.0 | 5.0 | 0.00 | 0.00 | 0.00 | 64 | 1015.5 |
| 20260502051604 | 62 | 291 | 3.0 | 9.0 | 0.00 | 0.00 | 0.00 | 61 | 1015.5 |
| 20260502051104 | 61 | 276 | 1.0 | 5.0 | 0.00 | 0.00 | 0.00 | 60 | 1015.5 |
| 20260502050605 | 60 | 338 | 1.0 | 6.0 | 0.00 | 0.00 | 0.00 | 66 | 1015.6 |
| 20260502050104 | 60 | 299 | 0.0 | 9.0 | 0.00 | 0.00 | 0.00 | 68 | 1015.5 |
| 20260502045603 | 60 | 323 | 1.0 | 10.0 | 0.00 | 0.00 | 0.00 | 69 | 1015.7 |
| 20260502045104 | 60 | 343 | 0.0 | 9.0 | 0.00 | 0.00 | 0.00 | 68 | 1015.5 |
| 20260502044605 | 60 | 329 | 0.0 | 8.0 | 0.00 | 0.00 | 0.00 | 67 | 1015.6 |
| 20260502044103 | 60 | 306 | 0.0 | 8.0 | 0.00 | 0.00 | 0.00 | 67 | 1015.6 |
| 20260502043603 | 60 | 332 | 0.0 | 9.0 | 0.00 | 0.00 | 0.00 | 69 | 1015.6 |
| 20260502043103 | 59 | 305 | 0.0 | 8.0 | 0.00 | 0.00 | 0.00 | 71 | 1015.5 |
| 20260502042604 | 59 | 326 | 1.0 | 6.0 | 0.00 | 0.00 | 0.00 | 68 | 1015.4 |
| 20260502042103 | 59 | 293 | 1.0 | 2.0 | 0.00 | 0.00 | 0.00 | 69 | 1015.3 |
| 20260502041604 | 59 | 112 | 0.0 | 0.0 | 0.00 | 0.00 | 0.00 | 71 | 1015.4 |